GW3823 Weather Reports


Display with metric or nautical units.
time (UTC)temp
F
wind
direction
speed
MPH
gust
MPH
rain 1hr
in
rain 24hr
in
rain mn
in
humidity
%
barometer
mb
20260506181805 34 163 5.0 9.0 0.04 0.29 0.20 85 1007.3
20260506180804 34 174 2.0 8.0 0.04 0.29 0.20 67 1016.7
20260506180304 33 202 2.0 5.0 0.04 0.29 0.20 86 1007.2
20260506175804 32 135 2.0 5.0 0.04 0.25 0.17 76 1015.1
20260506175306 32 149 3.0 6.0 0.04 0.25 0.17 87 1006.9
20260506174305 32 208 2.0 5.0 0.04 0.25 0.17 87 1006.9
20260506173305 32 145 2.0 8.0 0.03 0.25 0.17 78 1013.7
20260506172804 31 175 1.0 2.0 0.03 0.25 0.17 88 1006.8
20260506172306 32 175 1.0 5.0 0.03 0.25 0.16 88 1006.7
20260506171805 31 159 2.0 6.0 0.03 0.25 0.16 88 1006.7
20260506171304 32 149 2.0 5.0 0.03 0.25 0.16 87 1006.8
20260506170804 31 195 3.0 5.0 0.03 0.25 0.16 78 1013.0
20260506170305 32 165 3.0 5.0 0.03 0.25 0.16 87 1006.6
20260506165804 31 163 3.0 5.0 0.00 0.22 0.13 88 1006.5
20260506165306 32 172 1.0 6.0 0.00 0.22 0.13 89 1006.4
20260506164304 30 142 3.0 6.0 0.00 0.24 0.13 88 1006.3
20260506163805 32 168 1.0 6.0 0.00 0.24 0.13 67 1015.2
20260506163305 30 161 2.0 6.0 0.00 0.26 0.13 88 1006.1
20260506162307 31 167 4.0 5.0 0.00 0.27 0.13 78 1006.0
20260506161804 31 158 5.0 5.0 0.00 0.28 0.13 88 1005.9
20260506161304 30 186 1.0 3.0 0.00 0.30 0.13 90 1005.9
20260506160805 31 144 2.0 5.0 0.00 0.32 0.13 66 1005.7
20260506160304 30 171 1.0 3.0 0.00 0.33 0.13 92 1005.8
20260506155804 31 145 2.0 3.0 0.00 0.35 0.13 93 1005.6
20260506154804 31 171 2.0 3.0 0.00 0.39 0.13 95 1005.6
20260506154304 30 181 2.0 3.0 0.00 0.40 0.13 95 1011.6
20260506153805 31 177 0.0 3.0 0.00 0.42 0.13 96 1005.5
20260506153305 30 128 2.0 3.0 0.00 0.43 0.13 96 1005.6
20260506152805 31 116 1.0 3.0 0.00 0.44 0.13 82 1005.5
20260506152306 30 152 1.0 3.0 0.00 0.45 0.13 96 1005.5
20260506151804 29 240 0.0 3.0 0.00 0.46 0.13 96 1005.4
20260506151304 30 137 1.0 2.0 0.00 0.46 0.13 96 1012.2
20260506150804 31 157 0.0 2.0 0.00 0.47 0.13 96 1005.3
20260506150305 29 248 0.0 2.0 0.00 0.48 0.13 96 1005.3
20260506145805 30 197 0.0 2.0 0.01 0.48 0.13 96 1005.4
20260506144805 29 129 1.0 2.0 0.01 0.48 0.13 95 1005.3
20260506144305 29 124 1.0 2.0 0.01 0.48 0.13 96 1005.5
20260506143804 29 212 0.0 2.0 0.01 0.48 0.13 95 1005.4
20260506143305 30 139 1.0 2.0 0.01 0.48 0.13 95 1013.5
20260506142306 29 274 1.0 2.0 0.01 0.48 0.13 95 1005.4
20260506141805 30 210 0.0 2.0 0.01 0.48 0.13 94 1005.4
20260506141304 29 271 0.0 3.0 0.01 0.48 0.13 95 1005.2
20260506140804 28 121 1.0 3.0 0.01 0.48 0.13 94 1014.4
20260506140305 29 162 1.0 2.0 0.01 0.48 0.13 95 1005.1
20260506135804 30 213 1.0 3.0 0.03 0.47 0.12 95 1010.4
20260506135306 29 129 2.0 3.0 0.03 0.47 0.12 95 1005.0
20260506134805 31 179 1.0 3.0 0.03 0.47 0.12 95 1012.3
20260506134304 30 0 1.0 2.0 0.03 0.47 0.12 95 1004.9
20260506133804 29 186 0.0 2.0 0.03 0.47 0.12 95 1004.8
20260506133306 30 257 0.0 2.0 0.03 0.47 0.12 95 1004.7
20260506132804 31 258 0.0 2.0 0.03 0.47 0.12 95 1004.6
20260506132307 30 133 0.0 5.0 0.03 0.47 0.12 95 1013.6
20260506131804 29 134 1.0 5.0 0.03 0.47 0.12 95 1004.3
20260506131304 30 60 0.0 3.0 0.03 0.47 0.12 95 1004.4
20260506130804 30 95 0.0 5.0 0.03 0.47 0.12 94 1004.1
20260506130304 31 105 1.0 5.0 0.03 0.47 0.12 94 1003.9
20260506125803 30 108 0.0 2.0 0.03 0.45 0.09 95 1003.9
20260506125305 30 15 1.0 2.0 0.03 0.45 0.09 95 1011.5
20260506124804 30 118 0.0 3.0 0.06 0.45 0.09 95 1003.7
20260506124305 31 25 2.0 3.0 0.06 0.45 0.09 95 1003.7
20260506123304 30 34 2.0 2.0 0.06 0.45 0.09 95 1003.6
20260506122306 30 84 2.0 9.0 0.06 0.45 0.09 95 1003.6
20260506121804 30 68 6.0 13.0 0.06 0.45 0.09 89 1003.6
20260506121304 30 72 9.0 13.0 0.06 0.45 0.09 95 1009.6
20260506120804 30 66 6.0 10.0 0.06 0.45 0.09 94 1003.4
20260506120304 31 79 5.0 9.0 0.06 0.45 0.09 93 1003.4
20260506115307 33 41 6.0 10.0 0.03 0.42 0.06 93 1003.2
20260506114804 33 53 3.0 5.0 0.00 0.39 0.03 88 1007.6
20260506114304 33 24 1.0 2.0 0.00 0.39 0.03 94 1003.0
20260506113305 34 127 1.0 5.0 0.00 0.39 0.03 94 1003.0
20260506112804 33 231 3.0 7.0 0.00 0.39 0.03 93 1003.0
20260506112306 34 230 1.0 2.0 0.00 0.40 0.03 93 1002.9
20260506111805 34 179 1.0 2.0 0.00 0.40 0.03 93 1002.9
20260506111305 34 100 0.0 5.0 0.00 0.40 0.03 84 1010.5
20260506110804 33 80 3.0 6.0 0.00 0.40 0.03 93 1003.2
20260506110304 35 30 3.0 3.0 0.00 0.40 0.03 87 1008.1
20260506105804 34 303 0.0 6.0 0.00 0.40 0.03 94 1003.0
20260506105305 35 105 2.0 2.0 0.00 0.40 0.03 94 1003.0
20260506104803 34 266 0.0 3.0 0.00 0.40 0.03 94 1003.0
20260506104304 35 202 1.0 3.0 0.00 0.40 0.03 94 1003.0
20260506103804 33 51 2.0 3.0 0.00 0.40 0.03 94 1003.0
20260506102804 34 112 1.0 5.0 0.00 0.40 0.03 94 1003.1
20260506102305 35 52 2.0 3.0 0.00 0.40 0.03 94 1003.1
20260506101804 34 5 2.0 5.0 0.00 0.41 0.03 94 1002.9
20260506101304 35 32 1.0 2.0 0.00 0.41 0.03 94 1003.1
20260506100304 35 188 1.0 2.0 0.00 0.41 0.03 94 1003.2
20260506095804 34 276 0.0 2.0 0.00 0.41 0.03 94 1003.1
20260506095305 36 149 0.0 2.0 0.00 0.41 0.03 94 1003.2
20260506094306 35 188 1.0 3.0 0.00 0.42 0.03 93 1003.3
20260506093806 34 244 1.0 3.0 0.00 0.42 0.03 93 1003.2
20260506093306 35 145 2.0 3.0 0.00 0.42 0.03 93 1003.3
20260506092806 34 203 1.0 3.0 0.00 0.42 0.03 93 1003.1
20260506092306 35 198 1.0 2.0 0.00 0.42 0.03 80 1010.4
20260506091806 34 26 2.0 2.0 0.00 0.42 0.03 92 1003.2
20260506091306 34 59 1.0 3.0 0.00 0.42 0.03 86 1003.2
20260506090806 34 68 2.0 6.0 0.00 0.42 0.03 91 1003.2
20260506090306 33 50 3.0 6.0 0.00 0.42 0.03 92 1003.3
20260506085807 34 60 4.0 6.0 0.00 0.43 0.03 92 1011.1
20260506084806 33 63 3.0 5.0 0.00 0.43 0.03 93 1003.4
20260506084307 33 50 3.0 5.0 0.00 0.43 0.03 87 1003.2
20260506083807 35 35 2.0 3.0 0.00 0.43 0.03 93 1003.3
20260506083306 34 79 3.0 3.0 0.00 0.43 0.03 93 1003.3
20260506082806 35 25 0.0 1.0 0.00 0.43 0.03 87 1003.5
20260506082305 34 333 1.0 1.0 0.00 0.43 0.03 93 1003.5
20260506081806 35 223 0.0 3.0 0.00 0.43 0.03 93 1003.5
20260506081307 34 146 2.0 3.0 0.00 0.43 0.03 93 1003.4
20260506080807 35 241 2.0 3.0 0.00 0.43 0.03 93 1003.4
20260506080306 34 159 1.0 2.0 0.00 0.43 0.03 93 1003.3
20260506073306 35 203 2.0 3.0 0.00 0.52 0.03 94 1003.9
20260506072807 36 118 1.0 3.0 0.00 0.52 0.03 94 1003.9
20260506072306 35 179 1.0 3.0 0.00 0.52 0.03 94 1009.1
20260506071805 36 124 1.0 2.0 0.00 0.52 0.03 94 1003.9
20260506071306 35 168 1.0 3.0 0.00 0.52 0.03 80 1012.1
20260506070806 34 60 1.0 3.0 0.01 0.52 0.03 94 1004.0
20260506070306 35 176 2.0 5.0 0.01 0.52 0.03 94 1004.0
20260506062306 36 27 1.0 2.0 0.02 0.75 0.02 93 1003.8
20260506061806 35 284 0.0 3.0 0.02 0.75 0.02 93 1008.7
20260506061306 35 174 1.0 5.0 0.02 0.75 0.02 93 1003.6
20260506060805 35 167 2.0 5.0 0.02 0.74 0.02 93 1008.6
20260506051306 35 86 5.0 7.0 0.00 0.91 0.00 88 1007.2
20260506050805 35 75 4.0 7.0 0.00 0.91 0.00 71 1003.5
20260506050306 38 58 3.0 5.0 0.00 0.91 0.00 88 1003.5
20260506044806 38 222 0.0 2.0 0.01 0.94 0.93 88 1003.4
20260506044306 39 189 1.0 2.0 0.00 0.94 0.93 87 1010.7
20260506043806 38 137 0.0 8.0 0.00 0.94 0.93 86 1003.5
20260506043306 38 104 2.0 13.0 0.00 0.95 0.93 66 1003.3
20260506042806 37 44 5.0 7.0 0.00 0.96 0.93 86 1003.2
20260506042306 36 33 2.0 9.0 0.00 0.96 0.93 86 1003.5
20260506041806 38 157 2.0 5.0 0.00 0.96 0.93 66 1003.5
20260506041305 37 48 2.0 5.0 0.00 0.96 0.93 88 1003.5
20260506040313 37 132 1.0 3.0 0.00 0.97 0.93 88 1003.6
20260506035806 39 172 1.0 6.0 0.00 0.99 0.93 85 1004.8
20260506035306 38 79 3.0 6.0 0.00 0.99 0.93 84 1003.9
20260506034806 39 36 3.0 8.0 0.00 0.99 0.92 83 1004.9
20260506033806 39 259 3.0 7.0 0.00 0.99 0.92 83 1005.0
20260506033306 38 227 2.0 6.0 0.00 0.99 0.92 84 1004.1
20260506032806 39 224 5.0 6.0 0.00 1.00 0.92 56 1005.0
20260506032306 38 184 2.0 5.0 0.00 1.00 0.92 92 1003.9
20260506030806 37 140 1.0 3.0 0.00 1.01 0.92 72 1003.4
20260506030306 38 330 2.0 3.0 0.00 1.02 0.92 92 1004.4
20260506025805 37 131 1.0 6.0 0.00 1.04 0.92 92 1003.4
20260506025306 38 215 3.0 6.0 0.01 1.04 0.92 92 1004.1
20260506024805 37 161 1.0 2.0 0.01 1.04 0.92 91 1003.6
20260506024306 39 47 0.0 3.0 0.01 1.04 0.92 91 1004.4
20260506023805 37 177 1.0 3.0 0.01 1.04 0.92 91 1003.5
20260506023305 39 12 1.0 2.0 0.01 1.05 0.92 91 1004.5
20260506022806 37 147 0.0 2.0 0.01 1.06 0.92 91 1003.3
20260506022306 39 321 2.0 5.0 0.02 1.06 0.92 91 1004.0
20260506021806 37 307 1.0 7.0 0.02 1.08 0.92 91 1002.8
20260506021306 38 143 4.0 7.0 0.02 1.08 0.92 55 1003.7
20260506020805 37 200 2.0 3.0 0.02 1.09 0.92 89 1002.7
20260506020305 38 4 1.0 3.0 0.02 1.10 0.92 89 1003.6
20260506015805 37 222 2.0 7.0 0.02 1.12 0.92 89 1004.1
20260506015306 51 216 4.0 7.0 0.02 1.12 0.92 89 1002.9
20260506014805 37 291 1.0 3.0 0.02 1.14 0.92 90 1003.7
20260506013805 37 95 2.0 5.0 0.02 1.20 0.91 50 1003.5
20260506013305 37 200 1.0 13.0 0.02 1.24 0.91 86 1002.5
20260506012805 37 65 8.0 14.0 0.02 1.29 0.91 85 1003.3
20260506012308 39 43 3.0 14.0 0.02 1.30 0.90 84 1002.4
20260506010805 41 231 2.0 5.0 0.02 1.32 0.90 85 1003.1
20260506010305 39 193 3.0 5.0 0.02 1.32 0.90 83 1002.1
20260506005805 41 210 2.0 8.0 0.02 1.33 0.90 81 1003.0
20260506005306 39 231 3.0 8.0 0.02 1.33 0.90 82 1002.2
20260506004805 42 191 0.0 5.0 0.02 1.33 0.90 84 1003.1
20260506004305 40 173 2.0 8.0 0.02 1.33 0.90 81 1002.3
20260506003805 42 211 5.0 8.0 0.01 1.32 0.89 75 1003.1
20260506002306 42 162 4.0 9.0 0.00 1.31 0.88 72 1002.1
20260506001805 44 140 2.0 6.0 0.00 1.31 0.88 69 1003.1
20260506001305 42 321 3.0 10.0 0.00 1.31 0.88 68 1002.0
20260506000805 44 170 4.0 13.0 0.00 1.31 0.88 68 1002.9
20260505235805 45 194 5.0 12.0 0.00 1.31 0.88 47 1003.1
20260505235305 44 182 5.0 13.0 0.01 1.31 0.88 68 1002.0
20260505234806 42 150 6.0 13.0 0.01 1.31 0.88 70 1001.5
20260505234306 43 156 5.0 12.0 0.01 1.31 0.88 70 1002.0
20260505233804 45 208 3.0 24.0 0.01 1.31 0.88 41 1002.9
20260505233305 42 70 9.0 24.0 0.02 1.31 0.88 69 1001.9
20260505232805 44 92 5.0 16.0 0.02 1.31 0.88 40 1002.6
20260505232306 43 84 5.0 15.0 0.02 1.31 0.88 68 1001.5
20260505231805 44 79 10.0 16.0 0.02 1.31 0.88 68 1002.3
20260505231305 45 69 7.0 17.0 0.02 1.31 0.88 42 1002.9
20260505230805 43 58 7.0 17.0 0.02 1.31 0.88 69 1002.0
20260505230305 45 50 4.0 10.0 0.02 1.31 0.88 72 1002.7
20260505225805 43 57 5.0 9.0 0.01 1.31 0.88 69 1002.0
20260505225306 45 50 3.0 12.0 0.01 1.30 0.87 71 1002.7
20260505224805 43 79 4.0 12.0 0.01 1.30 0.87 70 1002.0
20260505224304 44 194 2.0 13.0 0.00 1.30 0.87 72 1002.8
20260505223805 41 80 3.0 12.0 0.00 1.30 0.87 73 1001.6
20260505223305 42 71 7.0 17.0 0.00 1.30 0.86 44 1002.1
20260505222805 44 92 9.0 17.0 0.00 1.30 0.86 73 1003.0
20260505222306 42 332 6.0 20.0 0.00 1.30 0.86 44 1001.9
20260505221804 44 37 6.0 18.0 0.00 1.30 0.86 75 1002.4
20260505221305 45 45 5.0 17.0 0.01 1.30 0.86 51 1002.8
20260505220805 43 55 13.0 21.0 0.01 1.30 0.86 76 1002.3
20260505220305 42 72 14.0 22.0 0.02 1.30 0.86 59 1001.5
20260505215804 55 63 7.0 15.0 0.02 1.31 0.86 73 1002.6
20260505215305 44 44 9.0 13.0 0.02 1.32 0.86 71 1001.7
20260505214305 45 60 6.0 14.0 0.02 1.32 0.86 71 1001.7
20260505213805 47 59 6.0 12.0 0.02 1.32 0.86 71 1002.9
20260505213304 42 63 6.0 9.0 0.02 1.32 0.86 71 1002.0
20260505212805 54 94 5.0 8.0 0.02 1.32 0.86 74 1002.7
20260505212306 41 72 6.0 8.0 0.01 1.31 0.86 75 1002.1
20260505210805 41 332 3.0 15.0 0.01 1.31 0.86 62 1001.9
20260505210304 43 255 7.0 24.0 0.00 1.30 0.85 73 1002.7
20260505205805 44 235 9.0 25.0 0.00 1.35 0.85 65 1001.8
20260505205305 59 146 11.0 24.0 0.00 1.35 0.85 32 1001.8
20260505204805 60 253 3.0 13.0 0.00 1.35 0.85 49 1000.9
20260505203805 59 150 5.0 13.0 0.00 1.35 0.85 49 1000.9
20260505203305 59 177 6.0 18.0 0.00 1.35 0.85 33 1002.0
20260505202805 60 110 6.0 14.0 0.00 1.35 0.85 45 1001.2
20260505202306 59 247 3.0 14.0 0.00 1.35 0.85 30 1000.4
20260505201805 59 182 5.0 21.0 0.00 1.35 0.85 48 1001.5
20260505201305 60 168 3.0 13.0 0.00 1.35 0.85 31 1000.8
20260505200804 60 158 5.0 9.0 0.00 1.35 0.85 48 1001.9
20260505200304 59 152 5.0 8.0 0.00 1.35 0.85 48 1001.2
20260505195805 60 178 2.0 10.0 0.00 1.39 0.85 48 1000.6
20260505195305 59 179 5.0 14.0 0.00 1.39 0.85 48 1001.3
20260505194805 52 152 12.0 14.0 0.00 1.39 0.85 48 1000.3
20260505194305 59 172 9.0 16.0 0.00 1.39 0.85 49 1001.4
20260505193805 60 150 9.0 20.0 0.00 1.39 0.85 48 1001.0
20260505193305 59 164 6.0 16.0 0.00 1.39 0.85 49 1002.2
20260505192805 59 184 6.0 12.0 0.00 1.39 0.85 48 1001.5
20260505192306 59 162 5.0 16.0 0.00 1.39 0.85 49 1001.1
20260505191805 59 188 6.0 16.0 0.00 1.40 0.85 50 1002.1
20260505190805 60 138 7.0 23.0 0.00 1.40 0.85 49 1001.9
20260505190305 59 194 12.0 23.0 0.00 1.40 0.85 50 1002.9
20260505185805 56 135 3.0 21.0 0.00 1.40 0.85 48 1004.0
20260505184805 56 280 5.0 17.0 0.00 1.40 0.85 47 1002.6
20260505184305 56 69 2.0 14.0 0.00 1.40 0.85 50 1001.7
20260505183805 56 150 5.0 12.0 0.00 1.40 0.85 54 1002.6
20260505183304 55 118 3.0 8.0 0.00 1.40 0.85 52 1001.6
20260505182805 56 215 2.0 9.0 0.00 1.40 0.85 50 1002.6
20260505182306 55 168 3.0 12.0 0.00 1.40 0.85 53 1001.8